Tracking 26933 objects as of 5-Feb-2023
HD Live streaming from Space Station
objects crossing your sky now

FACSAT 1

Track FACSAT 1 now!
10-day predictions


NORAD ID: 43721
Int'l Code: 2018-096C
Perigee: 411.0 km
Apogee: 425.0 km
Inclination: 97.3 °
Period: 92.8 minutes
Semi major axis: 6788 km
RCS: Unknown
Launch date: November 29, 2018
Source: (TBD)
Launch site: SRIHARIKOTA (SRI)
Your satellite tracking list
Your tracking list is empty




NASA's NSSDC Master Catalog

Two Line Element Set (TLE):
1 43721U 18096C   23036.54485166  .00066847  00000-0  11024-2 0  9995
2 43721  97.3277 122.8127 0010307 288.0754 130.0809 15.52013231233891
Source of the keplerian elements: AFSPC